Weather History for Cagliari, Italy

Change the Weather History Date:

Friday, November 4, 2011

  Actual Average Record
Temperature  
Mean Temperature 69 °F -  
Max Temperature 70 °F 64 °F 79 °F (2012)
Min Temperature 68 °F 48 °F 41 °F (2006)
Cooling Degree Days 4    
Growing Degree Days 19 (Base 50)    
Moisture  
Dew Point 62 °F    
Average Humidity 78    
Maximum Humidity 83    
Minimum Humidity 62    
Precipitation  
Precipitation 0.00 in 0.07 in - ()
Sea Level Pressure  
Sea Level Pressure 29.81 in    
Wind  
Wind Speed 18 mph ()    
Max Wind Speed 24 mph    
Max Gust Speed -    
Visibility 6.1 miles    
Events      
Averages and records for this station are not official NWS values.
T = Trace of Precipitation, MM = Missing Value Source: Averaged Metar Reports

Daily Weather History Graph

Daily Weather History Graph

Search for Another Location

Airport:

Trip Planner

Search our weather history database for the weather conditions in past years. The results will help you decide how hot, cold, wet, or windy it might be!

Date:

Astronomy

Nov. 04, 2011 Rise Set
Actual Time 6:54 AM CET 5:19 PM CET
Civil Twilight 6:26 AM CET 5:47 PM CET
Nautical Twilight 5:54 AM CET 6:19 PM CET
Astronomical Twilight 5:23 AM CET 6:50 PM CET
Moon 2:02 PM CET (11/4) 12:52 AM CET (11/4)
Length of Visible Light 11h 21m
Length of Day
10h 25m
Waxing Gibbous, 67% of the Moon is Illuminated
Nov 4
Waxing Gibbous
Nov 10
Full
Nov 18
Last Quarter
Nov 25
New
Dec 2
First Quarter

Hourly Weather History & Observations

Time (CET) Temp. Dew Point Humidity Pressure Visibility Wind Dir Wind Speed Gust Speed Precip Events Conditions
12:15 AM 68.0 °F 62.6 °F 83% 29.89 in 6.2 mi SE 19.6 mph - N/A   Scattered Clouds
12:45 AM 68.0 °F 62.6 °F 83% 29.86 in 6.2 mi SE 19.6 mph - N/A   Scattered Clouds
12:55 AM 68.0 °F 62.6 °F 83% 29.86 in 6.2 mi SE 19.6 mph - N/A   Scattered Clouds
1:00 AM 69 °F 63 °F 77% 29.88 in 6 mi SE 19.6 mph - -   Overcast
1:15 AM 68.0 °F 62.6 °F 83% 29.86 in 6.2 mi SE 19.6 mph - N/A   Scattered Clouds
1:45 AM 68.0 °F 62.6 °F 83% 29.86 in 6.2 mi SE 18.4 mph - N/A   Scattered Clouds
1:55 AM 68.0 °F 62.6 °F 83% 29.86 in 6.2 mi SE 18.4 mph - N/A   Scattered Clouds
2:15 AM 68.0 °F 62.6 °F 83% 29.86 in 6.2 mi SE 20.7 mph - N/A   Scattered Clouds
2:45 AM 68.0 °F 62.6 °F 83% 29.86 in 6.2 mi SE 18.4 mph - N/A   Scattered Clouds
2:55 AM 68.0 °F 62.6 °F 83% 29.86 in 6.2 mi SE 18.4 mph - N/A   Scattered Clouds
3:15 AM 68.0 °F 62.6 °F 83% 29.86 in 6.2 mi SE 20.7 mph - N/A   Scattered Clouds
3:45 AM 68.0 °F 62.6 °F 83% 29.83 in 6.2 mi ESE 20.7 mph - N/A   Scattered Clouds
3:55 AM 68.0 °F 62.6 °F 83% 29.83 in 6.2 mi ESE 20.7 mph - N/A   Scattered Clouds
4:00 AM 69 °F 63 °F 77% 29.86 in 6 mi ESE 20.7 mph - -   Overcast
4:15 AM 68.0 °F 62.6 °F 83% 29.83 in 6.2 mi ESE 20.7 mph - N/A   Scattered Clouds
4:45 AM 68.0 °F 62.6 °F 83% 29.83 in 6.2 mi ESE 20.7 mph - N/A   Mostly Cloudy
5:15 AM 69.8 °F 62.6 °F 78% 29.83 in 6.2 mi ESE 21.9 mph - N/A   Mostly Cloudy
5:45 AM 68.0 °F 62.6 °F 83% 29.83 in 6.2 mi SE 19.6 mph - N/A   Mostly Cloudy
5:55 AM 68.0 °F 62.6 °F 83% 29.83 in 6.2 mi SE 19.6 mph - N/A   Mostly Cloudy
6:15 AM 68.0 °F 62.6 °F 83% 29.83 in 6.2 mi SE 18.4 mph - N/A   Mostly Cloudy
6:45 AM 68.0 °F 62.6 °F 83% 29.83 in 6.2 mi SE 18.4 mph - N/A   Mostly Cloudy
6:55 AM 68.0 °F 62.6 °F 83% 29.83 in 6.2 mi SE 18.4 mph - N/A   Mostly Cloudy
7:00 AM 69 °F 63 °F 77% 29.85 in 6 mi SE 18.4 mph - -   Mostly Cloudy
7:15 AM 68.0 °F 62.6 °F 83% 29.83 in 5.0 mi SE 20.7 mph - N/A   Mostly Cloudy
7:45 AM 69.8 °F 62.6 °F 78% 29.86 in 5.0 mi SE 19.6 mph - N/A   Mostly Cloudy
7:55 AM 69.8 °F 62.6 °F 78% 29.86 in 5.0 mi SE 19.6 mph - N/A   Mostly Cloudy
8:15 AM 69.8 °F 62.6 °F 78% 29.86 in 5.0 mi SE 19.6 mph - N/A   Mostly Cloudy
8:45 AM 69.8 °F 62.6 °F 78% 29.83 in 5.0 mi SE 20.7 mph - N/A   Mostly Cloudy
8:55 AM 69.8 °F 62.6 °F 78% 29.83 in 5.0 mi SE 20.7 mph - N/A   Mostly Cloudy
9:15 AM 69.8 °F 62.6 °F 78% 29.86 in 6.2 mi SE 20.7 mph - N/A   Scattered Clouds
9:45 AM 69.8 °F 60.8 °F 73% 29.83 in 6.2 mi ESE 21.9 mph - N/A   Mostly Cloudy
9:55 AM 69.8 °F 60.8 °F 73% 29.83 in 6.2 mi SE 20.7 mph - N/A   Scattered Clouds
10:15 AM 69.8 °F 60.8 °F 73% 29.83 in 6.2 mi SE 20.7 mph - N/A   Mostly Cloudy
10:45 AM 69.8 °F 60.8 °F 73% 29.83 in 6.2 mi SE 19.6 mph - N/A   Mostly Cloudy
10:55 AM 69.8 °F 60.8 °F 73% 29.83 in 6.2 mi SE 19.6 mph - N/A   Mostly Cloudy
11:15 AM 69.8 °F 60.8 °F 73% 29.83 in 6.2 mi ESE 23.0 mph - N/A   Mostly Cloudy
11:45 AM 69.8 °F 60.8 °F 73% 29.80 in 6.2 mi ESE 24.2 mph - N/A   Mostly Cloudy
12:15 PM 69.8 °F 60.8 °F 73% 29.80 in 6.2 mi ESE 21.9 mph - N/A   Mostly Cloudy
12:45 PM 69.8 °F 59.0 °F 68% 29.80 in 6.2 mi SE 23.0 mph - N/A   Mostly Cloudy
12:55 PM 69.8 °F 59.0 °F 68% 29.80 in 6.2 mi SE 23.0 mph - N/A   Mostly Cloudy
1:00 PM 70 °F 60 °F 62% 29.80 in 6 mi SE 23.0 mph - -   Overcast
1:15 PM 69.8 °F 60.8 °F 73% 29.80 in 6.2 mi ESE 20.7 mph - N/A   Mostly Cloudy
1:45 PM 69.8 °F 60.8 °F 73% 29.80 in 6.2 mi SE 19.6 mph - N/A   Mostly Cloudy
1:55 PM 69.8 °F 60.8 °F 73% 29.80 in 6.2 mi SE 19.6 mph - N/A   Mostly Cloudy
2:15 PM 69.8 °F 62.6 °F 78% 29.80 in 6.2 mi SE 17.3 mph - N/A   Mostly Cloudy
2:45 PM 69.8 °F 62.6 °F 78% 29.77 in 6.2 mi ESE 18.4 mph - N/A   Mostly Cloudy
2:55 PM 69.8 °F 62.6 °F 78% 29.77 in 6.2 mi ESE 18.4 mph - N/A   Mostly Cloudy
3:15 PM 69.8 °F 60.8 °F 73% 29.77 in 6.2 mi ESE 19.6 mph - N/A   Mostly Cloudy
3:45 PM 69.8 °F 62.6 °F 78% 29.77 in 6.2 mi SE 23.0 mph - N/A   Scattered Clouds
4:00 PM 70 °F 62 °F 69% 29.78 in 6 mi SE 23.0 mph - -   Overcast
4:15 PM 69.8 °F 62.6 °F 78% 29.77 in 6.2 mi ESE 17.3 mph - N/A   Scattered Clouds
4:45 PM 69.8 °F 62.6 °F 78% 29.77 in 6.2 mi ESE 16.1 mph - N/A   Scattered Clouds
4:55 PM 69.8 °F 62.6 °F 78% 29.77 in 6.2 mi ESE 16.1 mph - N/A   Scattered Clouds
5:15 PM 68.0 °F 60.8 °F 78% 29.77 in 6.2 mi ESE 15.0 mph - N/A   Scattered Clouds
5:45 PM 69.8 °F 62.6 °F 78% 29.77 in 6.2 mi ESE 19.6 mph - N/A   Scattered Clouds
5:55 PM 69.8 °F 62.6 °F 78% 29.77 in 6.2 mi ESE 19.6 mph - N/A   Scattered Clouds
6:15 PM 69.8 °F 62.6 °F 78% 29.77 in 6.2 mi ESE 18.4 mph - N/A   Scattered Clouds
6:45 PM 68.0 °F 62.6 °F 83% 29.77 in 6.2 mi ESE 16.1 mph - N/A   Scattered Clouds
6:55 PM 68.0 °F 62.6 °F 83% 29.77 in 6.2 mi ESE 16.1 mph - N/A   Scattered Clouds
7:00 PM 68 °F 62 °F 76% 29.79 in 6 mi ESE 16.1 mph - -   Overcast
7:15 PM 68.0 °F 62.6 °F 83% 29.77 in 6.2 mi ESE 19.6 mph - N/A   Scattered Clouds
7:45 PM 68.0 °F 62.6 °F 83% 29.77 in 6.2 mi ESE 17.3 mph - N/A   Scattered Clouds
7:55 PM 68.0 °F 62.6 °F 83% 29.77 in 6.2 mi ESE 17.3 mph - N/A   Scattered Clouds
8:15 PM 68.0 °F 62.6 °F 83% 29.77 in 6.2 mi ESE 16.1 mph - N/A   Scattered Clouds
8:45 PM 69.8 °F 62.6 °F 78% 29.77 in 6.2 mi ESE 19.6 mph - N/A   Mostly Cloudy
9:15 PM 69.8 °F 62.6 °F 78% 29.77 in 6.2 mi ESE 18.4 mph - N/A   Mostly Cloudy
9:45 PM 69.8 °F 62.6 °F 78% 29.77 in 6.2 mi ESE 20.7 mph - N/A   Scattered Clouds
9:55 PM 69.8 °F 62.6 °F 78% 29.77 in 6.2 mi ESE 20.7 mph - N/A   Scattered Clouds
10:00 PM 69 °F 63 °F 74% 29.79 in 6 mi ESE 20.7 mph - -   Mostly Cloudy
10:15 PM 69.8 °F 62.6 °F 78% 29.77 in 6.2 mi ESE 21.9 mph - N/A   Scattered Clouds
10:45 PM 69.8 °F 62.6 °F 78% 29.77 in 6.2 mi ESE 19.6 mph - N/A   Scattered Clouds
10:55 PM 69.8 °F 62.6 °F 78% 29.77 in 6.2 mi ESE 19.6 mph - N/A   Scattered Clouds
11:15 PM 69.8 °F 62.6 °F 78% 29.77 in 6.2 mi ESE 23.0 mph - N/A   Mostly Cloudy
11:45 PM 69.8 °F 62.6 °F 78% 29.77 in 6.2 mi ESE 21.9 mph - N/A   Mostly Cloudy
11:55 PM 69.8 °F 62.6 °F 78% 29.77 in 6.2 mi ESE 21.9 mph - N/A   Mostly Cloudy